Theta_e
331 330 330 330 331 333 333 336 334 329 330 330 329 327 325 322 323 335 340 338 339 337 338 342 339 340 340 340 340 339 342 344 344 344 345 347 351 352 353 353 353 353 352 355 356 355 355 354 355 355 354 355 354 354 356 355 357 356 355 356 355 354 354 353 353 354 353 353 353 353 352 352 352 352 353 353 352 352 351 351 353 357 358 357 356 356
328 325 327 331 332 334 334 336 334 330 329 329 328 324 322 322 325 336 339 338 339 336 335 340 338 338 340 340 340 338 340 342 343 343 343 346 349 352 354 354 353 352 351 353 355 354 355 355 356 356 355 356 355 355 357 357 358 358 357 357 357 356 356 354 353 353 353 353 352 353 352 351 352 352 353 354 354 353 352 353 354 357 357 357 357 357
325 325 327 331 331 333 334 335 333 331 330 327 327 321 318 322 326 332 338 339 339 333 334 339 337 337 341 338 338 339 339 340 343 343 343 344 347 352 353 354 354 353 353 353 352 354 356 356 356 356 357 356 356 356 357 358 359 359 357 358 358 357 357 356 354 354 354 353 353 352 352 353 352 353 354 353 353 353 350 352 356 358 357 357 356 357
320 325 329 329 329 331 332 332 331 330 328 328 325 318 316 323 324 321 328 341 339 336 336 338 337 336 340 339 339 339 338 339 341 342 344 342 345 351 351 353 354 353 355 355 352 353 354 356 357 358 357 357 356 357 358 359 359 359 359 358 359 358 357 358 356 354 355 354 354 354 354 354 352 351 354 354 353 353 351 351 356 359 358 357 356 357
323 327 330 328 329 332 329 328 329 326 323 325 326 321 318 324 325 322 329 337 336 336 338 337 329 329 337 339 338 340 338 338 338 342 343 339 343 349 351 353 353 351 352 354 354 354 354 356 358 358 358 357 357 357 357 359 359 359 359 359 359 359 359 359 357 356 356 356 356 356 356 355 353 352 353 355 353 354 353 351 355 359 359 357 355 356
326 329 328 327 327 329 327 326 327 325 319 319 325 326 324 327 328 328 332 331 324 323 334 334 320 321 333 337 339 339 337 337 338 342 342 341 341 348 351 352 351 351 351 353 355 354 354 355 358 358 358 358 357 358 358 358 359 360 360 360 360 360 360 359 358 357 358 358 358 358 358 356 355 354 353 355 354 353 355 351 351 357 360 358 355 355
325 327 327 326 326 327 327 324 325 326 318 314 321 327 327 328 327 326 327 324 315 317 331 335 321 318 325 332 339 340 339 340 339 341 342 342 343 344 349 351 349 350 350 351 352 354 355 355 357 359 359 359 358 358 359 358 358 360 360 361 361 361 360 359 359 359 359 359 359 359 358 358 357 356 356 358 357 354 354 353 349 353 358 358 356 354
326 326 327 327 326 325 324 322 324 326 319 315 323 326 325 326 324 325 324 319 318 321 328 332 327 319 317 327 340 340 338 339 339 341 342 342 344 344 347 350 350 350 351 351 350 353 356 356 357 359 360 361 359 359 360 358 358 359 360 361 361 361 361 360 359 360 360 360 360 360 359 358 358 357 357 358 359 356 355 354 351 351 355 359 358 355
328 326 328 329 326 324 323 323 326 327 323 321 326 325 324 325 324 325 322 318 320 319 315 320 324 318 314 324 339 340 336 338 340 343 345 343 345 345 345 348 351 350 349 348 351 356 357 356 357 359 361 362 359 359 360 360 359 359 360 361 361 361 360 361 360 361 360 360 361 361 360 360 358 356 356 357 359 358 355 356 355 353 353 358 360 358
329 327 327 328 327 325 325 326 327 327 325 324 325 324 324 325 325 324 322 317 317 315 311 315 318 315 313 319 331 334 332 335 341 344 345 346 347 347 346 347 350 352 352 351 354 358 357 358 359 359 362 362 360 360 360 360 360 360 362 362 362 362 361 361 362 361 361 361 361 362 362 361 358 356 356 356 357 359 358 358 359 356 355 357 361 360
328 328 328 327 327 327 327 327 326 326 326 325 324 324 323 324 326 324 322 317 313 312 312 315 317 316 314 317 325 331 333 337 342 343 346 346 346 348 346 345 347 352 355 355 357 358 358 359 360 358 361 362 360 361 360 360 360 361 363 363 364 364 363 362 363 362 362 361 362 362 362 361 359 357 358 357 357 360 360 360 361 360 359 358 359 359
327 328 328 327 328 329 329 327 327 327 326 325 325 322 318 319 320 317 316 315 312 311 312 315 317 315 312 316 326 335 337 339 339 342 346 346 345 348 347 345 347 351 352 355 358 357 359 359 360 360 361 362 361 360 360 361 361 361 362 364 365 365 363 363 363 364 363 362 362 362 363 362 360 359 358 358 358 361 362 362 362 362 361 361 358 358
325 327 328 328 328 329 328 324 324 324 325 325 323 317 313 312 314 313 311 312 311 310 313 316 317 313 312 320 331 337 336 337 338 338 341 342 343 345 348 347 346 347 349 354 357 357 359 360 359 362 362 362 362 360 361 360 361 363 364 366 366 365 365 364 364 364 363 362 362 362 364 363 361 360 359 360 359 361 364 365 364 363 362 362 361 358
318 325 327 327 327 328 328 321 318 320 322 323 319 313 311 312 312 313 312 311 311 310 312 316 316 312 312 322 332 334 334 336 336 336 338 340 339 341 348 348 345 344 349 354 356 356 360 360 360 362 363 363 363 361 362 361 361 364 365 367 368 367 367 366 366 366 364 363 362 362 363 363 363 361 360 361 360 360 364 365 365 363 362 363 362 360
313 317 324 325 325 327 330 325 321 323 322 323 324 319 314 312 312 312 311 310 311 310 311 314 314 310 310 321 332 332 331 335 333 335 337 339 339 339 344 348 345 343 347 351 356 357 358 360 361 363 363 363 364 362 361 362 362 364 367 368 369 369 368 367 367 366 365 363 362 362 363 364 364 363 362 362 361 360 362 365 365 363 361 361 361 360
312 314 324 327 327 327 328 326 327 326 321 323 328 320 314 316 316 312 311 311 311 310 311 311 312 315 319 327 332 332 331 333 332 333 335 337 338 337 341 346 343 340 343 348 354 359 358 360 363 364 363 363 364 363 362 362 363 364 367 369 370 371 370 369 367 366 364 363 362 362 364 364 365 366 364 364 363 362 362 363 364 363 361 359 358 361
311 314 326 327 325 328 328 327 328 324 320 323 321 316 319 325 321 312 311 313 311 311 312 311 312 316 321 325 330 332 331 332 332 332 333 336 339 338 340 347 343 339 342 346 352 358 359 360 363 364 364 363 364 364 364 363 363 365 367 369 371 372 371 369 368 366 364 364 363 363 364 365 366 366 364 364 364 364 363 362 363 363 363 360 359 359
316 314 325 327 323 326 326 326 326 326 325 322 316 317 324 325 323 317 313 313 313 312 312 311 311 313 313 318 327 331 331 330 331 331 332 334 337 335 336 342 345 341 341 345 352 360 360 359 362 364 364 364 364 364 365 365 365 365 367 369 372 372 372 370 368 366 364 364 364 364 365 365 365 365 364 363 364 365 364 363 363 363 363 362 360 358
323 313 320 328 324 324 328 325 322 324 328 325 320 324 322 315 314 314 313 313 313 313 312 310 311 312 311 315 325 330 330 331 331 331 331 332 334 333 333 336 342 343 343 345 349 356 360 360 361 365 364 363 364 365 366 365 365 366 368 368 370 371 371 370 368 366 365 365 364 365 365 365 365 365 364 364 363 364 364 364 363 364 363 362 362 360
327 317 315 326 327 324 326 323 317 318 324 326 326 327 323 317 314 314 314 313 311 312 312 311 310 310 315 322 327 330 332 331 331 332 333 332 331 334 335 335 339 343 342 342 345 353 359 359 358 364 364 363 364 366 365 365 365 366 367 368 369 370 370 370 368 366 366 366 365 365 365 365 365 364 364 363 363 364 366 365 364 364 362 363 363 362
329 322 314 321 326 322 320 322 320 319 320 320 319 319 318 319 318 317 315 312 312 311 311 312 310 310 319 328 331 333 334 331 332 332 332 332 332 333 335 337 339 343 343 342 345 349 356 359 358 362 363 362 363 365 365 366 366 365 366 367 368 369 369 369 368 367 367 366 365 366 365 365 366 364 364 364 364 365 367 366 365 365 364 362 362 363
327 324 315 316 318 316 318 325 326 324 324 322 319 318 318 318 315 314 313 313 312 310 311 312 310 311 323 332 332 331 333 332 331 331 332 332 332 333 337 337 341 346 345 344 347 350 355 359 358 360 363 362 362 365 364 365 366 364 365 366 366 367 367 367 368 368 369 367 366 366 365 365 366 366 365 363 364 365 366 366 367 365 364 364 363 363
328 328 319 314 317 320 325 327 326 325 326 325 323 323 325 321 315 310 311 312 312 311 311 311 310 315 327 334 331 331 332 331 332 332 331 332 331 334 336 335 340 345 345 347 345 347 352 357 358 360 364 363 361 363 364 364 365 365 364 365 364 365 366 365 366 368 368 368 367 366 366 366 366 365 365 363 364 365 364 365 367 367 365 364 363 364
329 328 320 316 319 324 326 328 327 327 326 323 322 324 325 323 320 318 317 317 314 311 310 311 310 316 328 333 330 330 331 328 331 331 332 332 331 334 334 336 341 345 348 348 346 348 349 353 359 361 363 366 364 363 365 364 364 364 364 364 363 362 363 363 363 366 369 369 367 366 367 366 365 364 364 363 362 363 363 362 366 367 366 364 361 362
324 324 322 316 316 318 319 321 321 323 323 322 323 325 325 326 326 324 322 321 316 312 312 311 309 315 328 334 330 329 329 328 329 330 330 333 333 332 334 339 345 349 351 350 348 348 349 355 365 366 367 370 366 362 364 364 364 362 362 363 362 362 362 361 362 363 367 369 366 366 367 366 365 364 364 363 361 362 361 361 363 365 365 365 361 359
324 326 325 318 314 314 314 315 315 318 320 322 324 326 326 326 325 322 318 315 314 315 315 311 309 318 332 336 331 331 331 330 330 329 330 331 333 337 341 343 346 351 355 351 349 349 353 360 367 370 370 370 365 361 363 363 364 361 362 361 361 361 361 361 361 361 365 367 366 366 367 367 366 366 364 364 361 360 360 360 360 362 364 365 363 359
326 329 326 322 318 317 318 321 325 324 319 317 320 324 324 326 327 323 316 312 314 316 314 315 318 320 328 335 333 330 330 331 331 332 331 332 335 339 341 342 345 352 355 353 351 352 355 360 363 367 368 365 362 361 362 361 362 361 361 361 361 361 360 361 361 362 364 366 366 366 366 366 366 366 365 364 363 361 360 359 358 359 362 364 365 362
327 325 327 328 323 326 330 330 330 328 321 318 319 321 323 327 326 322 315 316 320 315 311 321 326 320 323 333 334 330 331 332 332 331 333 334 337 337 338 338 343 350 353 354 355 356 357 359 362 365 365 361 358 359 360 360 361 360 360 360 359 360 360 360 361 361 364 365 366 367 367 365 367 367 365 364 364 362 360 360 359 358 360 363 365 364
326 323 326 328 324 329 333 330 328 329 326 325 323 321 323 325 323 320 318 323 325 316 313 324 330 324 328 333 331 332 334 332 332 332 332 335 336 335 336 336 337 341 346 350 355 358 360 360 361 363 362 360 358 357 358 358 358 360 359 359 360 359 358 359 360 362 363 364 366 367 367 366 367 367 367 365 364 363 361 361 360 359 360 362 364 364
324 324 329 328 324 327 331 330 330 328 326 326 326 324 325 325 323 323 323 326 326 322 323 331 331 329 332 333 331 333 333 331 332 333 331 333 335 333 334 334 332 334 339 347 353 357 361 362 363 364 365 364 361 358 359 358 357 358 358 358 359 359 358 359 360 361 363 365 366 368 368 367 366 368 367 366 365 365 365 363 362 361 360 361 363 363
321 324 329 328 323 324 327 329 328 327 326 324 324 326 326 325 325 324 324 327 326 324 327 331 328 330 332 333 333 335 335 334 333 332 332 333 333 334 333 332 331 333 336 340 345 354 359 362 365 367 367 366 364 361 359 358 357 356 356 357 357 357 357 357 359 362 362 364 366 368 369 368 367 368 369 367 366 367 367 366 363 363 362 361 362 364
321 323 325 325 322 321 323 325 325 325 326 321 320 325 326 323 323 323 325 327 325 323 325 323 322 328 334 333 333 334 335 334 334 333 334 333 332 332 332 332 333 334 335 336 337 343 349 353 361 368 366 363 363 361 358 357 358 356 355 355 356 356 356 356 358 361 362 363 365 368 370 370 369 370 370 369 369 368 369 367 365 364 364 363 363 365
321 321 321 323 321 320 322 323 323 322 322 318 320 325 327 326 326 326 326 329 328 327 325 320 322 331 336 335 333 333 333 333 334 334 333 333 334 334 334 333 334 333 334 336 338 338 336 340 351 357 357 356 359 359 357 355 356 356 355 355 354 354 355 355 356 359 362 364 364 368 371 371 370 371 371 371 370 369 370 369 367 366 366 365 366 365
320 320 321 322 320 318 320 322 321 319 318 320 325 328 327 327 327 326 325 329 329 329 327 327 330 334 334 333 332 332 333 332 333 334 333 334 335 334 334 335 335 335 336 337 334 334 337 339 345 350 349 348 351 354 356 355 354 354 355 354 354 355 355 355 356 358 362 363 364 366 370 372 371 371 371 373 372 371 371 370 369 368 366 366 367 366
318 319 321 322 320 318 319 320 319 317 319 324 327 328 328 327 327 328 328 328 328 328 328 330 331 332 332 333 333 334 334 333 333 332 332 332 334 334 335 336 336 336 337 336 336 344 352 353 353 353 352 348 345 347 351 353 353 354 354 354 354 354 356 356 357 358 360 364 364 366 369 372 373 371 372 373 373 372 371 371 370 369 367 367 367 367
316 318 320 320 320 320 319 318 319 320 323 325 329 329 330 329 328 326 324 326 328 328 328 329 329 329 330 330 331 332 333 332 331 333 334 333 333 334 332 333 335 334 334 335 341 353 363 363 357 357 357 354 349 345 345 349 352 352 354 353 353 354 355 356 358 358 360 363 364 365 369 373 373 373 373 373 373 372 371 371 371 370 367 366 366 367
314 316 318 319 319 321 319 316 319 321 323 325 329 331 331 330 330 326 322 325 329 328 329 331 330 331 331 331 332 332 333 336 337 336 332 330 328 332 332 330 329 332 336 341 348 356 361 361 360 360 359 356 352 347 343 344 348 351 352 352 353 354 355 356 358 358 359 363 365 367 369 373 373 373 374 374 374 372 372 371 372 371 369 367 366 368
313 315 318 319 318 319 318 316 319 319 319 322 327 332 332 330 331 332 326 326 331 331 331 334 335 335 335 334 334 337 341 341 338 333 334 337 337 342 348 343 337 342 349 352 354 356 357 361 366 366 363 361 358 354 350 347 345 349 351 352 353 354 355 356 358 359 360 362 366 368 370 373 374 374 373 375 374 373 372 372 372 371 370 367 367 367
313 314 316 317 318 318 317 317 318 317 319 326 331 332 332 330 334 334 326 324 333 337 336 335 335 337 337 339 342 345 343 336 329 333 346 350 348 352 355 354 352 352 354 353 354 360 363 365 368 366 364 362 359 359 357 352 350 350 351 352 353 354 355 356 358 360 360 362 366 370 371 373 373 374 373 373 374 373 372 372 372 372 370 369 368 367
312 313 314 315 316 318 317 317 317 317 323 331 331 330 329 329 332 328 320 323 337 342 339 339 338 340 344 348 349 346 340 333 334 343 350 350 348 353 354 355 353 353 354 355 358 363 364 364 367 368 365 364 365 364 360 357 353 352 353 354 352 353 355 356 357 360 361 361 365 369 372 373 374 374 373 373 374 373 372 372 372 372 371 371 369 368
312 312 314 313 315 317 317 316 316 318 324 330 330 330 329 328 329 325 322 332 343 341 339 341 341 342 346 348 348 347 343 342 344 347 347 347 350 352 352 353 353 354 356 358 362 363 361 361 367 368 364 366 368 364 361 358 355 355 356 355 354 354 354 355 357 359 361 362 364 368 373 373 374 374 373 373 373 373 372 372 372 371 372 370 369 368
312 313 313 314 314 315 316 316 315 318 324 327 327 327 326 325 327 329 333 339 341 337 339 339 339 343 346 346 347 346 345 344 344 346 346 348 350 350 349 351 354 355 355 358 361 361 359 363 367 367 364 364 364 362 360 359 356 357 357 356 356 355 352 355 358 360 362 366 366 368 372 375 374 373 372 372 372 372 372 371 371 371 370 370 368 368
314 313 313 313 314 314 315 316 316 319 325 327 325 326 330 331 332 335 336 337 336 336 339 339 341 345 346 345 346 346 345 346 346 346 347 348 348 348 349 352 354 355 355 357 359 357 359 363 366 366 365 365 365 366 366 360 358 359 358 356 357 357 353 356 359 360 363 367 368 370 374 375 374 372 371 370 371 372 372 372 370 371 371 370 369 369
317 316 316 315 315 315 314 316 319 323 325 325 325 329 332 333 334 335 336 335 335 336 338 339 342 345 345 345 346 345 346 348 347 347 348 348 347 348 349 352 353 353 353 356 358 356 358 362 365 365 364 363 364 368 370 367 361 360 361 362 362 359 356 356 358 361 365 368 369 370 373 374 372 370 368 369 370 371 372 372 371 370 371 370 370 369
319 319 320 319 320 319 318 319 322 324 323 323 325 327 328 328 331 334 335 335 336 338 339 340 342 343 342 343 343 344 346 347 347 346 346 346 346 347 348 350 351 352 353 356 357 356 356 360 362 360 361 362 363 365 370 371 366 363 367 370 369 365 361 359 362 366 368 369 369 369 370 372 370 369 369 368 370 371 372 371 371 371 370 370 369 368
318 318 318 319 319 320 320 320 321 323 322 322 323 324 324 324 326 331 334 335 336 336 336 338 340 341 341 341 342 344 345 344 344 345 344 345 346 347 348 349 350 352 353 354 354 355 356 357 358 357 358 360 360 363 366 369 368 369 369 369 368 368 367 366 366 369 371 370 369 368 368 370 370 369 368 367 368 370 370 370 370 369 369 369 368 367
315 314 315 317 318 318 319 320 320 321 321 320 320 321 323 323 324 328 332 333 333 334 335 337 339 339 340 340 342 343 343 343 343 344 345 347 348 347 348 350 350 351 352 353 354 354 356 356 357 357 358 359 360 361 362 363 365 365 365 365 365 366 368 369 368 368 369 368 368 368 368 369 369 367 366 366 365 367 367 368 368 368 369 368 367 367
314 315 315 316 317 318 318 319 318 319 318 318 319 320 321 321 324 328 329 330 331 332 334 335 336 339 340 340 341 341 342 342 341 342 345 346 347 348 348 349 350 351 352 352 353 354 355 357 357 358 358 358 358 358 359 359 360 361 363 365 366 367 369 368 367 368 368 366 367 368 368 367 367 366 366 367 367 365 366 366 365 364 365 367 366 366
313 314 315 315 316 316 316 317 317 317 317 317 317 319 321 323 325 326 326 326 328 330 332 333 335 337 339 340 340 340 341 342 341 342 343 343 344 345 346 347 349 350 350 351 352 353 354 355 356 356 356 356 355 356 357 357 357 359 361 364 365 368 368 368 368 369 367 366 366 367 367 367 366 365 365 367 365 365 366 366 365 366 367 365 365 365
312 313 314 314 315 314 315 316 317 317 317 317 318 320 322 323 323 323 324 325 327 328 329 331 333 336 338 339 338 339 341 342 341 341 341 342 343 343 344 346 348 349 350 350 350 351 352 354 354 354 354 354 354 354 355 355 355 356 357 361 364 367 367 367 367 367 366 366 367 366 365 366 365 365 365 364 363 364 366 364 363 365 365 362 361 362
312 313 313 313 314 314 315 316 316 317 317 318 318 319 320 320 320 322 323 324 325 326 328 330 334 336 338 339 339 338 340 340 340 341 341 341 342 343 344 346 347 348 349 349 349 350 351 352 352 353 353 353 353 352 352 353 354 353 354 355 360 363 364 365 365 365 364 365 364 364 363 363 363 363 363 363 362 365 367 364 360 358 356 355 355 355
Wind_Speed
12 11 14 15 16 18 20 20 19 19 19 17 15 14 14 14 11 11 12 11 12 13 15 17 16 14 15 14 13 13 13 12 12 11 10 12 13 14 13 14 14 14 13 16 23 28 29 28 27 27 26 27 27 26 27 27 27 27 26 25 25 24 25 24 23 22 21 20 19 18 17 17 16 16 15 15 14 14 14 13 14 14 14 13 13 13
14 14 16 19 20 20 20 20 20 20 21 19 14 12 13 14 12 13 15 15 12 10 12 17 17 16 15 16 16 14 14 14 14 13 12 13 14 14 15 15 13 11 12 16 21 25 28 28 28 27 26 28 29 27 28 29 28 28 26 26 25 25 25 25 24 24 23 22 20 19 18 17 17 17 16 16 15 15 14 14 15 15 14 14 14 13
14 15 19 21 20 19 18 19 21 20 20 18 12 11 11 11 11 12 16 17 12 7 10 14 15 14 14 15 15 15 15 14 14 14 12 13 13 13 15 15 13 13 14 18 20 24 28 29 29 28 26 28 29 28 29 29 29 28 27 26 26 25 25 26 25 25 23 22 21 19 18 18 17 17 17 15 15 15 15 15 15 15 15 15 15 14
13 15 20 22 19 20 20 20 22 19 16 15 13 11 11 11 12 11 13 17 15 10 11 14 12 11 13 14 14 14 14 13 15 15 13 13 13 13 15 14 14 15 15 18 21 22 25 28 29 28 27 28 29 29 29 29 29 29 28 28 27 26 25 26 26 25 23 21 21 19 17 17 16 15 16 15 15 15 15 16 16 16 16 16 15 15
15 13 17 21 20 21 22 20 20 16 13 16 17 14 12 15 15 11 11 15 15 15 14 13 10 9 13 15 14 14 16 15 15 16 14 13 12 14 16 16 17 17 17 18 22 23 23 25 28 29 28 28 29 30 30 31 31 29 29 29 28 27 26 25 26 25 23 21 20 19 17 17 16 14 15 16 16 16 17 17 17 17 17 17 16 16
17 14 15 21 22 21 21 19 19 16 12 15 19 19 17 17 16 15 14 12 11 12 13 14 11 9 14 18 16 14 15 16 15 15 15 13 12 14 17 18 18 19 18 17 20 22 23 24 27 29 28 28 29 30 31 31 31 30 30 30 29 28 27 25 26 26 23 21 21 20 18 17 17 16 16 17 17 17 17 17 17 17 17 18 17 16
14 17 16 19 22 23 21 18 19 19 12 11 16 20 21 20 17 16 16 13 10 9 11 14 12 8 10 14 17 16 16 18 15 14 15 13 12 13 15 17 18 19 18 17 19 21 23 24 26 28 30 30 30 30 31 31 31 31 30 31 31 28 27 26 26 27 25 22 22 22 20 19 18 17 16 16 16 16 17 16 17 17 17 18 17 17
15 21 18 17 20 20 17 15 18 19 13 10 13 18 21 22 20 18 16 13 10 9 10 14 14 10 10 12 16 18 18 18 16 14 15 14 14 14 15 16 18 18 19 18 20 22 23 24 26 29 32 32 31 30 30 30 31 32 32 32 32 29 27 26 26 28 27 23 23 23 22 20 19 18 16 16 16 16 15 16 16 17 17 17 18 17
17 22 20 19 18 15 15 16 17 18 15 12 13 14 16 18 21 19 16 12 10 10 10 14 15 12 10 9 13 17 18 18 16 15 16 15 14 14 14 15 17 19 20 20 21 22 22 24 28 32 33 32 31 31 31 31 31 32 32 32 32 30 28 27 27 29 28 25 23 24 23 21 20 18 16 16 16 16 15 16 16 16 16 17 18 18
15 18 20 19 16 13 16 17 18 19 16 13 14 15 13 12 14 16 14 12 12 12 12 15 16 12 10 9 11 14 15 15 15 16 16 15 14 13 13 15 17 18 19 20 21 21 22 25 30 32 32 32 31 31 31 30 30 30 31 31 32 31 29 29 29 29 30 27 25 24 24 23 21 19 17 16 17 17 17 16 17 17 16 17 17 18
15 16 18 17 14 14 16 16 17 19 17 14 15 14 10 8 8 10 11 11 11 13 15 18 19 15 11 9 11 12 13 15 15 14 15 15 16 15 14 17 16 16 15 17 19 20 22 26 29 30 31 32 31 30 31 30 29 30 31 31 33 32 30 29 30 30 31 29 27 25 24 24 22 20 19 18 17 18 18 18 18 18 17 17 17 17
18 16 14 14 16 15 15 15 16 18 18 14 13 11 8 7 8 8 8 10 12 12 13 18 20 19 14 10 10 12 15 18 16 15 17 18 19 18 17 18 16 14 15 16 17 18 20 22 25 27 29 31 31 30 31 31 31 31 31 32 33 33 31 30 31 32 31 30 28 25 24 24 24 22 21 20 19 19 19 19 18 18 18 17 17 17
18 16 14 15 17 18 16 13 13 15 16 14 12 11 10 9 8 9 10 10 12 11 11 15 17 17 15 11 12 14 15 17 16 15 17 20 22 20 20 19 15 14 16 16 16 17 18 19 21 24 28 31 31 32 33 33 32 31 32 33 33 33 33 31 31 32 32 31 28 26 25 24 24 24 23 22 21 20 20 19 19 19 19 18 18 18
14 16 19 17 15 18 18 12 11 12 14 15 13 11 11 9 9 10 11 10 11 11 13 16 15 14 14 11 15 19 17 16 16 16 18 21 22 20 20 17 14 14 16 15 16 17 17 19 19 22 27 30 32 34 35 34 34 32 32 34 34 34 33 32 31 32 32 31 29 28 26 24 24 25 25 23 22 22 21 20 20 20 20 19 19 19
14 14 19 19 13 17 21 16 13 12 13 14 13 11 11 9 9 9 9 9 10 9 13 16 13 12 11 8 11 17 18 17 15 15 17 19 18 17 18 17 14 14 14 14 16 18 18 20 21 22 27 30 32 35 35 34 34 33 33 35 35 34 34 34 33 32 32 31 30 29 27 25 25 25 25 24 23 23 23 21 21 21 21 20 19 20
18 14 16 21 16 18 23 19 16 14 12 12 12 12 11 11 9 7 8 10 9 8 10 13 11 9 8 7 8 10 14 18 17 15 15 15 16 15 17 18 15 14 14 15 16 18 20 20 21 23 27 30 31 34 34 34 35 34 33 35 37 36 36 36 35 34 33 32 31 30 28 27 25 24 24 24 24 24 24 23 22 22 22 21 20 19
15 12 15 23 21 21 23 21 20 15 10 10 13 13 12 12 11 7 8 9 8 9 8 9 10 9 7 8 9 9 11 15 18 19 17 15 16 16 15 17 16 15 16 16 17 18 20 20 21 25 28 30 31 33 35 36 37 37 35 35 36 36 36 36 35 34 33 33 32 31 30 28 27 26 25 25 25 24 24 23 23 22 22 22 21 20
11 10 15 24 24 22 21 22 23 20 13 9 12 14 12 12 11 8 7 7 7 8 7 9 12 11 8 7 9 14 14 14 16 19 19 18 18 17 16 17 18 18 17 17 18 18 19 20 21 24 28 31 32 34 36 37 37 37 36 36 37 36 36 36 36 35 34 34 33 32 32 31 29 28 27 25 25 24 24 24 24 23 23 23 23 21
10 9 13 22 24 20 19 20 19 20 20 14 10 13 12 11 11 9 8 8 9 8 7 10 11 9 9 8 8 13 16 14 14 16 18 19 19 18 17 18 21 20 17 16 17 16 18 20 21 24 29 32 34 34 34 35 35 35 36 36 36 37 38 38 36 35 34 35 33 32 34 34 32 29 27 26 25 24 24 25 25 25 24 23 23 23
10 9 9 18 23 19 15 15 15 16 20 17 12 13 12 10 10 10 8 7 8 7 7 9 11 9 9 10 9 10 13 15 14 13 14 16 17 16 15 16 18 17 15 15 15 15 18 20 23 28 31 32 33 33 32 33 34 35 35 35 35 36 36 36 35 34 34 35 33 32 33 34 33 31 29 27 26 25 26 26 26 25 25 24 23 23
11 9 8 13 20 18 13 14 16 17 17 16 13 13 12 10 8 9 10 8 8 7 6 7 8 7 6 7 9 9 11 13 13 13 12 12 14 15 15 14 15 15 14 14 15 18 20 20 22 27 29 29 30 31 32 33 34 34 34 34 35 36 35 35 35 35 35 35 34 33 33 34 34 33 31 29 28 28 27 27 26 26 25 25 24 24
9 7 10 10 14 15 15 17 21 21 19 16 13 12 13 12 10 10 10 10 9 8 6 6 6 2 4 3 4 7 9 11 12 12 12 11 13 14 14 14 15 16 15 16 17 17 17 17 19 22 25 26 27 30 32 33 33 34 34 34 35 35 36 37 37 36 35 35 34 35 35 34 34 33 33 31 31 30 29 27 27 27 26 25 25 25
6 4 10 11 12 14 17 20 21 22 22 19 16 14 13 12 12 10 9 9 9 9 8 7 6 2 7 5 5 5 5 8 10 10 10 11 12 12 13 15 16 17 16 17 17 14 12 14 16 19 22 25 26 28 30 31 32 34 34 34 34 35 37 37 37 36 35 34 35 35 35 34 34 34 34 33 32 31 31 29 28 28 27 27 26 26
4 4 9 9 10 13 16 19 20 21 21 18 17 16 14 14 14 11 8 7 8 10 9 6 6 4 7 7 8 7 1 6 9 10 10 10 10 10 12 13 13 14 12 12 12 12 13 15 14 15 17 19 22 26 29 30 31 33 34 34 34 36 37 37 36 35 34 34 34 34 34 34 34 34 35 35 34 33 33 31 29 29 29 28 27 26
4 8 10 8 10 12 13 15 16 18 18 13 14 18 18 19 19 14 10 8 7 10 12 9 7 5 8 8 5 3 6 7 9 10 10 9 9 10 9 7 8 9 8 8 8 9 12 14 13 13 13 15 20 25 27 29 30 31 33 35 35 35 36 36 35 35 35 34 34 34 34 35 35 35 36 36 35 35 35 33 31 30 30 30 29 27
5 10 10 9 12 12 12 12 13 15 14 12 16 22 23 23 22 16 10 8 8 9 11 10 6 5 9 9 8 7 7 7 7 9 10 9 8 7 8 8 7 6 7 8 8 9 10 10 12 13 12 14 20 23 24 27 29 29 31 33 34 34 34 35 34 35 35 34 34 34 35 35 35 35 37 37 36 35 35 35 33 31 30 29 29 29
5 8 12 15 14 6 1 4 8 14 16 16 20 23 24 24 23 16 11 9 8 7 8 9 5 7 11 11 8 8 8 7 6 7 10 11 9 10 10 7 6 6 6 7 8 8 8 8 10 13 12 14 19 22 22 25 27 28 29 31 33 32 33 34 34 34 34 33 33 34 35 35 35 35 36 36 35 35 34 34 34 32 30 29 29 30
5 8 13 19 19 10 4 8 6 10 18 20 22 23 23 25 24 20 15 12 10 8 8 9 8 5 10 12 9 8 9 7 6 6 7 10 9 8 8 5 6 9 8 8 9 9 9 9 9 11 13 15 18 21 22 24 26 27 27 29 30 31 31 33 33 34 34 33 32 33 34 35 34 34 35 35 35 34 33 33 33 33 31 30 29 30
6 9 13 18 21 15 7 6 9 8 14 16 19 24 25 25 26 24 19 16 13 9 8 11 13 10 7 11 11 10 8 7 6 5 4 7 8 8 7 4 4 9 11 9 9 10 10 10 10 11 12 14 17 19 21 22 23 25 26 26 28 29 30 31 32 33 33 32 32 32 33 33 32 32 33 33 34 34 33 32 32 32 32 30 30 29
4 6 9 15 18 16 12 8 8 9 9 9 14 22 24 23 25 24 21 20 17 13 10 10 14 14 9 10 12 12 7 4 3 2 1 1 5 5 4 1 1 6 11 11 10 10 10 10 11 12 12 13 15 17 20 21 21 23 24 25 26 28 29 29 31 32 32 32 32 31 31 31 31 31 32 33 33 34 33 32 30 31 31 31 30 29
3 2 3 7 12 14 13 10 8 8 7 8 13 17 20 23 24 23 21 20 17 15 13 10 10 11 9 8 7 5 2 2 3 4 4 2 2 3 2 3 4 3 5 7 7 7 8 9 11 11 13 14 15 18 20 21 21 22 23 24 26 28 28 28 29 31 32 31 31 29 29 31 31 30 31 33 32 32 32 32 30 30 31 31 31 30
5 3 2 5 8 10 13 13 11 9 8 10 12 12 14 18 19 18 18 18 16 16 16 13 10 8 7 7 7 2 1 4 4 3 4 4 4 5 5 5 5 5 4 4 4 3 4 6 9 11 12 13 15 19 20 20 21 22 23 24 25 26 27 28 29 30 31 30 28 28 29 30 30 30 30 31 31 31 31 31 30 29 29 30 31 30
4 4 4 7 7 9 14 16 13 9 9 11 12 12 13 13 12 12 13 14 14 12 11 10 8 4 4 5 6 5 5 7 6 5 6 6 5 6 7 7 7 7 6 5 5 5 5 4 4 6 7 7 11 16 19 20 21 22 23 23 23 24 27 29 29 29 30 30 28 28 29 29 30 30 29 30 30 29 28 29 30 29 29 29 30 30
4 5 5 6 6 9 13 14 12 12 12 9 8 12 14 12 11 12 11 11 11 9 7 7 6 5 5 6 8 8 7 5 5 5 6 5 4 6 7 7 7 7 7 6 6 7 6 5 3 3 4 5 8 11 15 19 20 20 21 22 23 25 26 27 28 28 28 30 30 29 29 29 29 30 29 28 28 28 28 29 31 31 29 29 29 30
5 5 4 3 6 8 9 10 12 14 11 7 7 11 14 16 16 14 13 13 13 12 12 11 9 7 6 5 5 4 3 3 3 5 6 6 6 7 7 7 7 7 7 7 6 4 3 3 3 3 4 5 6 7 10 14 17 18 20 22 24 25 25 26 26 27 27 29 30 30 29 29 29 29 29 28 28 29 30 31 31 32 31 30 30 31
6 6 5 5 6 6 6 9 10 6 4 6 8 6 7 13 17 16 16 16 16 14 14 14 13 12 10 8 6 4 3 4 5 5 5 7 8 9 9 9 8 8 7 6 4 4 4 4 4 4 4 5 6 7 8 11 14 17 20 22 24 25 26 26 26 27 27 28 30 31 30 29 29 29 28 29 29 31 32 31 31 31 31 30 29 29
6 6 6 7 7 6 6 9 8 4 3 8 9 5 5 9 13 13 13 13 14 13 11 9 9 9 8 7 6 4 3 4 4 5 7 11 12 11 12 13 11 8 6 5 5 5 4 4 5 5 5 7 8 10 10 11 13 17 19 21 23 25 26 27 27 28 28 29 30 31 30 29 29 28 28 29 29 31 31 30 29 29 29 29 29 29
7 6 6 6 7 6 7 9 9 8 8 8 9 8 6 4 5 6 7 8 9 9 8 6 5 4 5 6 5 3 2 3 5 6 6 7 6 7 10 9 5 4 7 7 7 7 6 6 5 5 6 8 9 11 11 12 13 15 18 20 22 24 25 26 28 29 29 28 28 29 29 29 29 28 28 28 29 30 29 29 28 28 28 29 29 29
10 8 6 7 7 8 10 9 10 10 6 5 8 10 7 3 2 4 6 8 6 5 3 6 7 7 6 6 4 2 4 6 8 4 4 7 8 10 12 11 9 9 9 8 8 8 8 8 8 8 9 10 11 12 12 12 14 14 16 19 21 22 25 26 27 28 28 27 26 26 27 28 28 27 28 28 29 28 28 27 27 26 27 28 28 27
11 8 7 8 9 9 10 9 9 7 2 5 5 6 6 5 5 6 9 7 5 5 3 1 4 3 1 3 3 4 7 7 5 3 7 10 10 9 9 10 10 9 8 8 9 10 10 9 8 9 9 7 7 8 10 11 13 14 14 17 20 21 24 25 24 24 26 27 25 25 26 26 27 27 27 27 27 25 25 25 25 24 25 26 25 25
9 8 7 9 10 10 11 10 8 7 3 5 5 5 4 5 8 7 6 3 6 5 4 2 2 2 2 2 3 3 5 5 7 8 9 9 9 9 9 8 8 8 8 8 9 10 10 8 6 6 7 6 5 6 8 9 11 13 13 15 18 19 20 21 21 21 24 26 25 24 25 25 26 27 26 25 24 24 24 24 24 24 25 25 24 24
8 7 7 9 10 11 11 9 9 8 1 6 3 5 4 4 6 2 3 4 2 3 4 5 4 5 5 4 4 4 6 9 11 11 10 10 9 9 9 8 8 8 8 8 8 8 9 8 6 6 6 5 5 5 7 8 9 10 11 13 15 16 16 17 20 21 22 23 24 24 23 24 25 25 25 24 24 23 24 24 23 24 24 23 23 23
6 7 7 8 8 9 11 10 10 8 4 12 4 4 3 1 1 4 7 6 3 2 5 6 5 6 6 6 6 7 9 10 11 10 9 9 9 9 8 7 6 7 7 7 6 7 8 7 5 5 6 7 7 7 5 7 8 8 9 11 11 13 13 13 16 20 20 20 22 22 22 23 24 23 22 22 23 23 22 22 22 22 22 22 22 22
4 5 6 7 5 7 11 10 5 1 6 11 6 1 3 5 4 6 8 5 3 4 6 6 6 7 7 7 7 8 9 9 9 8 8 8 8 8 7 7 6 6 6 6 6 7 8 7 4 5 6 6 7 7 7 5 6 8 7 7 7 9 12 11 13 16 17 18 19 20 20 20 21 21 21 21 21 21 21 21 21 21 21 21 21 20
1 2 2 2 2 5 7 5 4 6 5 6 6 6 7 7 6 7 8 7 6 7 8 7 7 8 8 8 8 8 9 9 9 8 8 8 8 7 7 7 7 7 7 6 5 6 7 5 5 5 6 7 6 6 7 4 3 7 5 3 2 5 8 9 10 13 15 16 17 18 17 17 17 19 19 18 19 19 19 19 19 18 18 19 20 20
1 2 3 3 4 6 8 9 7 5 4 6 7 8 9 9 8 8 8 8 8 9 10 9 10 11 10 10 9 8 9 10 10 10 9 8 8 7 7 7 7 7 8 6 6 7 7 4 4 4 4 5 4 4 6 5 3 4 3 3 2 3 4 6 9 10 11 13 14 15 16 15 15 16 17 17 17 17 17 17 17 17 17 17 18 19
5 4 5 6 5 5 6 8 7 4 6 9 9 9 8 8 8 8 8 8 9 11 11 11 12 12 11 11 10 10 9 9 8 8 8 8 8 7 7 7 6 6 7 6 5 6 6 3 3 2 2 4 5 6 5 5 4 3 2 2 4 4 4 5 7 9 9 10 11 12 14 14 14 14 15 16 15 14 14 15 15 15 15 16 16 17
2 1 5 8 8 7 9 10 10 10 11 11 10 9 8 7 8 9 9 9 10 11 12 11 11 11 11 10 10 10 9 7 6 6 6 6 7 7 7 6 6 5 6 6 5 4 3 2 2 2 4 5 6 7 6 5 5 4 3 2 1 3 6 6 6 6 8 9 9 10 11 12 11 11 12 14 14 13 13 13 14 15 14 13 13 13
3 3 5 7 8 9 11 12 12 13 13 13 13 10 7 7 8 10 10 11 11 12 12 12 11 10 10 10 9 9 9 7 5 6 5 5 6 7 8 7 7 6 6 6 6 5 3 2 2 3 5 6 6 6 6 6 7 7 6 6 5 3 4 6 6 6 7 8 7 8 8 9 9 9 9 11 13 11 8 6 7 8 7 5 4 3
6 8 8 7 8 9 10 11 11 10 9 10 9 7 8 9 10 11 11 11 11 12 12 13 12 11 10 9 7 8 8 6 5 5 4 3 3 5 6 7 6 5 4 4 3 3 2 2 3 4 5 6 5 6 7 7 8 8 7 7 7 7 6 5 5 6 7 7 5 5 7 8 10 9 8 9 11 11 7 4 3 3 5 5 4 2
7 9 9 9 9 9 9 10 9 8 8 9 10 10 9 9 11 12 12 11 11 11 12 13 12 12 11 8 6 6 6 5 5 5 3 2 1 1 2 3 4 3 3 2 2 1 2 3 4 4 5 6 6 6 7 8 8 8 7 7 7 7 7 7 7 7 5 5 6 5 3 5 6 6 7 8 7 8 9 8 7 7 6 5 5 4
Wind_Direction
193 202 209 213 213 210 212 215 220 226 234 233 224 224 222 226 224 206 220 216 197 208 210 215 226 218 214 221 218 201 193 201 202 202 200 196 188 174 179 194 196 198 198 190 186 183 180 180 180 180 181 181 184 183 181 182 183 186 186 185 187 186 185 185 183 185 188 190 192 194 197 197 199 202 203 205 205 204 203 198 193 193 195 195 196 198
199 213 214 212 215 214 213 216 222 226 232 237 235 234 227 225 224 201 207 218 203 207 215 213 224 225 215 217 218 207 201 206 205 202 199 201 195 172 178 193 192 196 199 190 186 185 181 180 179 180 180 181 182 182 181 183 183 185 186 186 186 184 184 186 185 185 189 192 192 194 198 199 198 200 203 204 204 205 202 197 195 195 197 197 198 199
205 221 218 211 213 218 217 214 220 226 229 234 234 238 236 222 226 212 201 210 207 208 223 219 225 228 222 222 219 208 205 205 205 205 201 204 198 176 178 187 188 200 199 190 186 184 183 181 179 179 180 182 182 181 182 183 183 184 186 187 186 185 185 187 186 187 190 193 193 195 197 200 200 198 202 205 204 205 203 198 198 198 199 199 199 200
206 218 215 212 209 213 218 214 215 222 227 231 227 227 234 222 222 220 199 199 203 213 228 228 231 234 231 231 227 224 222 209 201 204 205 209 198 176 181 184 185 200 202 194 188 182 181 181 179 180 181 182 182 181 182 182 183 185 186 188 188 188 187 187 188 188 190 192 193 196 198 202 204 200 200 205 205 204 205 202 200 201 201 200 201 201
213 211 206 211 209 208 216 216 212 217 221 227 229 225 228 228 227 231 218 201 202 213 224 228 233 233 231 232 227 225 228 216 201 202 207 215 198 170 177 185 185 197 204 200 191 180 179 182 181 181 182 182 183 183 183 183 184 185 186 187 188 189 189 188 188 188 189 190 191 195 198 202 206 203 199 203 205 202 203 204 201 202 204 201 203 203
221 212 196 206 209 208 214 216 210 214 220 222 226 228 233 237 235 238 234 216 211 219 217 221 231 229 222 227 227 219 220 216 201 201 209 214 203 176 176 184 186 196 201 202 198 183 178 181 180 181 182 184 185 185 185 184 184 185 185 186 187 189 191 190 189 188 187 189 190 193 196 198 200 202 200 201 204 202 202 206 203 202 204 203 204 205
224 217 203 203 207 207 212 217 211 212 223 224 218 221 230 241 244 244 239 225 222 230 221 219 230 243 227 226 230 224 221 217 200 200 212 209 205 196 189 185 182 193 195 197 205 192 180 179 179 181 183 186 187 185 185 185 185 185 184 185 186 187 190 191 190 188 188 190 191 193 196 197 198 200 202 201 204 206 203 206 206 202 203 204 206 207
217 217 208 201 206 209 211 217 211 207 220 229 218 216 220 230 238 242 244 241 238 242 238 223 220 237 239 226 228 226 223 220 205 200 214 211 203 205 206 190 180 190 191 191 203 196 183 181 181 181 183 186 187 184 184 185 186 185 184 184 185 186 188 190 190 190 190 192 193 195 197 199 201 202 202 201 204 208 207 207 208 205 202 203 207 208
209 215 210 199 204 212 211 213 207 203 218 229 226 226 221 223 230 233 238 245 244 245 246 230 221 233 240 224 226 228 223 219 208 204 215 214 203 204 214 202 184 188 192 192 199 195 186 185 185 183 183 184 185 183 184 186 186 185 184 183 184 186 187 188 189 190 192 194 195 197 198 200 203 205 205 203 204 207 208 206 208 208 204 202 206 209
206 211 215 207 204 215 215 210 204 207 218 223 224 229 225 222 227 228 231 237 241 242 241 233 229 239 247 228 223 227 223 216 209 208 212 212 203 201 218 218 195 186 191 192 194 193 189 189 188 185 182 182 184 184 184 185 184 183 183 183 184 185 187 187 189 190 192 195 197 200 201 201 202 203 205 206 205 205 206 205 205 207 205 202 205 208
218 203 213 219 210 213 217 208 205 213 216 214 220 222 218 221 227 229 229 231 238 240 236 233 233 241 247 233 223 224 222 218 213 204 200 204 202 194 210 226 206 186 191 193 191 192 191 191 190 187 183 182 184 183 182 184 184 183 183 183 184 185 186 187 188 190 192 194 198 202 202 202 201 200 202 205 204 203 203 205 204 204 205 205 207 208
227 208 203 217 211 207 217 212 204 210 209 208 215 209 201 208 214 225 223 221 234 237 230 229 232 240 245 234 227 229 223 221 218 202 193 199 202 191 198 221 211 189 194 196 191 190 190 190 190 188 185 183 183 182 182 184 184 183 183 183 183 185 186 186 188 190 191 193 197 202 204 205 202 199 200 203 204 203 201 203 203 202 205 208 210 210
224 219 203 204 204 200 212 213 197 200 201 202 209 201 200 203 198 212 212 212 230 234 229 226 223 233 245 239 235 239 231 223 222 210 199 206 210 194 189 209 213 197 196 195 192 190 188 189 190 188 186 183 183 183 183 184 184 183 184 183 183 185 185 186 187 188 190 193 196 201 205 206 203 201 202 203 204 204 203 202 202 202 204 206 209 211
211 219 209 199 196 197 207 211 192 193 195 197 203 198 198 201 195 205 210 215 228 228 224 225 223 231 243 238 229 234 236 229 225 213 203 212 217 197 181 198 214 206 198 192 191 192 188 188 190 189 187 184 185 185 184 184 184 183 183 184 184 184 185 184 185 187 189 192 196 200 204 205 204 203 203 204 205 205 205 204 204 204 205 206 208 211
204 212 207 200 191 189 202 215 204 190 191 198 203 201 203 210 210 208 210 216 224 225 216 214 222 234 237 236 228 229 229 227 230 223 207 209 215 196 175 185 207 213 205 194 191 192 191 188 189 190 189 187 187 186 185 184 184 184 183 183 184 183 184 184 185 187 189 192 195 199 202 204 204 204 203 205 206 207 207 206 206 207 208 209 211 211
212 216 204 200 197 188 196 210 209 195 192 195 200 206 208 213 222 224 224 224 224 230 217 205 216 233 237 244 239 235 228 218 220 225 214 205 209 203 180 175 192 212 208 197 194 193 191 188 187 189 190 189 189 187 186 184 184 185 185 183 184 183 183 184 185 187 189 191 193 196 200 202 202 202 202 204 205 207 209 208 208 209 209 212 213 212
213 219 202 195 197 197 195 199 206 204 193 186 198 210 207 210 225 234 230 230 231 234 225 206 213 218 224 231 217 217 232 220 211 216 216 205 202 205 189 173 181 206 207 196 195 193 188 188 187 189 191 190 190 189 188 186 184 185 185 184 184 184 184 184 185 187 188 189 191 194 198 200 201 201 202 204 204 205 208 210 210 210 210 212 212 212
213 222 206 194 194 195 192 196 206 211 207 192 196 202 201 210 226 237 233 223 220 229 229 219 217 208 208 222 207 203 216 220 210 208 212 208 204 206 201 183 181 198 205 195 194 191 185 187 188 189 192 192 192 191 190 187 185 184 184 184 184 184 185 186 186 188 188 188 190 193 196 199 200 202 204 205 205 204 207 210 210 210 211 211 211 212
220 227 206 193 191 186 184 196 206 209 213 217 204 193 197 209 209 213 227 223 216 222 224 226 228 218 209 214 209 201 203 212 210 203 207 208 203 204 206 193 183 191 200 195 194 193 186 186 188 189 192 194 193 193 191 189 186 185 185 185 186 186 187 188 188 188 188 189 191 193 196 198 199 201 203 205 205 205 207 210 210 210 210 210 210 210
222 232 210 183 181 179 180 196 204 199 206 219 218 199 201 216 208 201 215 226 225 225 219 222 226 226 223 217 209 193 189 202 205 199 209 211 198 195 201 192 180 186 200 194 190 197 193 188 190 191 193 193 192 191 191 190 189 188 186 186 187 188 188 189 189 188 189 190 192 193 194 196 198 200 202 203 204 205 208 210 210 211 210 209 209 209
219 227 223 174 170 182 188 198 205 195 192 205 214 203 198 206 210 207 211 216 226 231 226 225 224 216 212 210 204 184 174 191 201 194 203 214 200 189 193 189 174 181 203 199 191 198 196 190 191 192 192 192 191 189 191 191 191 191 189 188 189 189 189 190 190 190 190 191 192 193 193 195 197 198 200 202 203 205 208 209 210 211 210 209 208 209
221 223 224 184 172 196 201 195 204 203 194 195 205 206 199 197 203 208 208 205 216 233 234 238 242 191 105 108 182 187 176 183 197 195 190 204 207 191 185 187 176 179 197 201 195 196 195 191 190 189 189 191 191 190 192 192 191 192 192 191 190 190 190 191 192 191 191 191 193 193 194 195 195 196 198 201 202 205 208 209 209 209 209 208 208 208
235 259 234 207 187 206 206 195 203 209 202 197 203 209 203 198 204 208 206 198 205 223 232 243 249 139 93 102 141 154 181 185 188 197 192 193 203 194 183 185 182 179 190 198 192 187 194 196 191 185 185 190 193 191 192 193 193 193 194 192 192 192 193 193 193 192 191 191 193 194 194 194 195 196 198 200 202 204 207 208 208 208 208 208 208 209
209 261 241 222 196 202 204 196 199 209 207 200 203 209 207 204 204 207 211 200 197 210 211 219 233 173 115 125 124 101 168 200 172 183 199 192 188 189 185 183 176 168 176 196 192 181 188 191 186 183 182 187 194 194 193 195 195 194 194 193 194 195 195 194 193 192 191 192 194 194 194 195 196 197 199 201 204 205 207 208 208 207 208 209 210 210
207 221 223 224 206 193 193 192 191 203 210 205 201 205 208 208 204 205 213 209 206 207 198 202 222 187 124 127 144 171 207 191 161 164 181 183 177 178 173 151 128 133 154 192 202 189 183 178 175 182 183 184 193 196 195 196 197 197 196 195 195 196 195 195 194 193 192 193 194 194 195 196 197 198 200 202 205 207 208 209 209 209 209 209 211 212
250 219 210 218 211 190 189 198 190 193 203 207 204 201 205 209 206 202 207 212 210 202 199 209 205 138 127 148 177 190 170 146 146 153 152 157 153 128 111 97 97 130 166 185 192 189 183 176 174 181 185 187 193 197 198 197 200 201 200 198 198 196 194 195 195 194 193 193 194 195 196 197 198 200 201 203 206 208 209 210 210 211 210 209 210 212
267 229 219 226 226 204 192 252 211 194 197 204 206 201 201 208 208 204 206 211 208 197 203 218 199 137 138 150 154 155 148 135 134 132 131 142 134 99 90 95 120 153 173 173 173 176 178 179 178 181 187 193 196 199 200 201 202 204 203 203 202 198 194 194 194 194 194 194 195 195 196 198 199 200 202 204 207 208 209 210 211 212 211 209 209 210
267 233 224 229 235 244 320 337 307 215 204 205 206 203 201 204 207 209 211 205 198 202 203 204 213 182 145 153 168 165 153 139 129 131 127 130 130 113 106 115 133 143 152 159 160 165 175 182 184 185 189 196 201 202 203 204 205 205 206 205 204 202 198 195 194 194 194 194 195 195 197 198 198 200 203 204 206 208 209 210 211 211 210 208 208 209
268 234 226 226 233 240 245 311 318 252 216 215 214 208 202 202 206 209 212 206 199 213 209 186 201 215 164 155 170 158 141 138 146 158 119 110 136 143 129 125 134 139 147 154 157 167 176 181 186 190 192 198 203 203 204 206 207 206 207 206 206 206 203 198 195 195 194 194 196 196 196 196 197 199 202 204 205 206 208 208 208 209 209 209 208 210
277 235 238 228 229 236 231 245 279 256 236 245 232 214 204 203 206 207 210 209 203 212 218 185 189 209 201 167 162 150 147 176 187 216 314 116 171 161 114 103 230 163 158 156 160 173 179 181 185 188 191 196 202 203 204 206 207 208 208 206 205 207 206 200 196 196 196 195 196 195 194 194 197 198 200 202 204 204 205 206 206 207 208 209 209 210
279 239 285 250 234 235 227 221 242 252 251 247 231 217 208 205 204 204 207 209 206 208 211 193 181 200 210 203 190 156 128 267 258 244 256 272 281 311 322 269 267 244 181 161 163 170 173 182 185 184 190 195 198 202 203 204 206 208 209 207 205 205 206 203 198 197 199 199 196 192 191 193 195 196 198 200 202 202 201 203 205 206 207 208 209 209
284 286 293 246 235 235 223 213 220 234 240 238 232 226 219 212 206 203 203 204 206 207 207 205 199 194 193 210 228 230 215 256 268 262 265 286 293 288 281 277 283 280 250 217 218 207 189 197 189 182 191 196 196 200 203 203 203 205 208 209 205 203 204 205 203 199 199 201 196 191 191 192 192 194 196 197 198 199 198 199 203 206 206 207 208 208
304 310 257 217 220 230 219 212 215 224 231 234 228 219 218 219 215 208 202 204 210 212 211 210 207 189 169 198 224 221 214 229 244 255 263 268 274 278 281 280 274 268 255 235 243 265 268 254 210 188 201 203 198 200 201 202 204 205 206 207 205 202 202 205 205 200 197 199 197 194 193 192 191 193 195 195 195 195 195 196 201 204 205 205 205 206
312 303 270 221 220 223 210 203 210 219 223 222 216 218 222 224 223 216 206 204 208 214 223 221 212 199 190 207 224 226 228 229 234 256 266 263 267 274 272 270 273 280 284 281 280 285 294 309 318 292 273 251 223 209 201 202 205 205 205 205 204 204 203 204 205 201 196 197 198 197 194 192 192 194 194 193 191 191 193 196 200 203 204 204 204 205
303 292 273 235 233 220 185 182 207 220 227 223 212 225 232 228 228 232 230 224 218 217 222 227 229 222 215 224 230 224 231 245 261 274 276 277 281 281 279 280 282 281 281 283 287 301 331 335 312 301 296 275 253 231 211 206 205 203 204 204 204 204 202 202 204 203 198 196 198 198 195 193 193 193 192 190 189 190 194 197 199 201 203 204 204 205
285 278 247 224 246 241 184 185 206 217 234 216 199 213 240 227 222 227 232 231 230 227 225 226 228 227 226 229 226 214 229 252 264 271 280 290 287 280 279 279 276 275 278 288 315 359 22 355 318 312 310 294 278 261 238 220 210 205 205 204 203 204 202 200 202 204 201 198 198 198 196 194 192 191 191 190 190 193 196 198 199 199 200 203 206 206
261 273 246 218 235 252 219 202 194 156 171 201 191 190 225 221 218 224 230 228 224 227 232 230 227 225 223 222 224 233 251 262 268 270 274 272 268 270 276 269 262 274 300 331 350 356 355 328 305 291 281 275 269 263 255 241 222 211 207 204 202 203 202 200 200 202 202 200 199 198 196 194 193 191 191 191 193 196 198 198 199 198 199 202 206 208
229 246 249 232 227 231 229 218 203 199 207 196 175 173 188 211 220 224 233 225 210 214 226 231 230 237 248 255 261 274 291 286 271 267 276 283 294 332 329 304 286 328 357 3 352 337 332 331 322 300 284 275 267 261 257 252 236 217 208 206 203 201 202 203 201 200 201 200 198 198 196 195 194 193 193 194 196 198 199 199 199 199 199 202 206 209
215 223 241 245 230 218 221 221 214 219 218 153 148 165 173 168 132 161 206 213 190 168 188 224 234 238 248 265 275 259 251 258 258 265 10 11 7 11 6 3 9 11 1 348 341 344 343 337 325 301 280 267 261 255 249 248 243 227 211 206 206 202 202 205 204 199 200 199 198 198 198 197 198 196 195 197 199 199 199 199 200 200 201 204 208 211
208 207 217 227 225 219 222 222 217 220 175 95 131 164 164 169 172 185 200 186 129 95 89 203 237 236 251 287 275 239 237 247 264 335 8 0 359 10 11 3 359 355 345 337 348 356 339 316 304 290 276 274 275 262 247 239 237 233 219 208 209 207 204 206 205 200 199 199 199 199 199 199 199 198 198 200 200 200 200 199 200 201 202 205 209 212
204 204 209 217 220 221 223 223 221 214 149 107 146 149 129 173 189 194 199 130 74 62 56 44 351 18 35 323 282 257 254 281 317 339 343 342 350 0 357 350 346 344 342 341 348 346 325 308 309 302 297 318 321 279 258 245 233 230 223 212 213 216 209 203 200 198 198 198 199 199 198 198 197 197 200 202 200 199 200 200 200 202 203 206 209 211
192 199 209 215 218 218 217 218 223 220 96 56 133 156 140 193 190 167 317 315 5 52 36 15 3 18 19 354 331 315 307 314 320 325 332 338 342 339 333 336 337 332 332 335 339 336 323 317 324 315 313 333 328 285 262 250 233 223 221 218 218 220 214 199 194 195 196 197 198 199 197 195 195 197 201 203 200 200 201 201 202 204 204 207 209 210
187 191 204 209 214 219 216 215 218 212 38 25 21 168 129 71 355 357 331 296 260 33 17 359 4 15 4 349 340 324 314 316 317 321 330 333 332 326 321 328 335 329 322 320 326 336 328 319 325 332 341 349 344 332 297 254 229 212 215 219 217 217 216 204 193 193 194 194 197 198 196 194 196 199 202 203 201 201 202 201 202 204 203 205 208 210
211 206 209 202 204 220 214 210 216 252 18 11 1 32 47 28 15 353 339 325 323 0 3 353 356 4 355 346 342 326 313 309 310 318 327 325 322 321 319 325 330 325 314 313 334 344 328 320 337 349 354 1 354 342 327 283 218 196 200 207 208 213 217 212 195 189 191 194 195 198 198 198 200 202 203 203 200 200 201 200 200 202 203 205 210 215
270 326 291 233 262 279 252 252 326 350 351 357 13 21 2 355 4 2 355 353 350 354 356 345 340 351 353 346 337 324 315 315 317 321 323 319 317 318 317 316 316 313 308 314 341 336 314 320 356 350 350 7 11 357 349 341 185 175 165 137 150 205 211 206 193 187 191 195 197 200 202 201 203 204 203 201 199 198 200 201 200 202 205 208 214 220
224 327 308 277 282 298 283 267 273 303 330 337 346 351 341 338 350 357 356 359 355 348 346 341 338 344 347 343 338 331 326 326 326 324 323 318 314 312 309 304 304 307 308 317 340 328 305 311 359 351 345 3 21 30 22 27 83 125 120 119 152 177 180 188 191 191 195 198 196 198 199 197 199 201 200 201 201 199 200 203 203 205 208 212 218 223
209 226 261 262 262 279 273 253 249 283 334 334 323 315 314 324 342 350 350 351 346 340 339 340 337 337 338 337 332 326 325 329 328 323 322 321 315 311 307 302 304 311 312 324 342 330 314 331 7 5 26 38 37 42 43 51 74 95 121 168 183 175 166 185 195 194 198 200 196 194 193 192 195 197 196 198 200 200 200 204 207 209 210 216 222 225
218 220 257 256 248 248 258 267 278 298 310 306 293 288 296 317 340 348 343 337 337 337 337 337 335 330 328 329 328 320 317 326 327 315 318 331 332 327 321 313 311 315 317 329 338 328 335 36 52 56 68 62 47 41 45 52 57 60 64 69 119 170 170 176 186 188 191 194 190 186 188 190 193 193 190 189 193 197 200 203 209 212 211 214 221 225
256 236 244 255 254 248 251 260 270 284 289 277 268 280 313 336 341 338 331 328 331 334 331 329 330 325 315 316 323 315 305 308 313 306 312 338 344 339 336 329 318 314 318 331 340 339 359 55 72 72 70 69 64 60 60 58 51 46 46 47 41 56 124 151 163 169 172 176 179 180 179 179 184 189 187 185 186 190 190 194 206 202 182 164 172 197
251 246 244 247 250 247 245 245 251 266 276 269 268 297 334 341 332 325 323 323 326 329 326 323 324 324 317 312 317 312 304 304 304 297 297 316 327 332 338 331 317 310 311 313 315 324 11 49 67 80 81 79 76 73 69 64 57 50 48 52 54 52 54 70 102 132 147 152 153 164 177 179 177 178 185 189 187 180 161 121 90 105 98 74 50 22
245 252 252 247 248 252 255 256 258 268 280 285 290 300 313 319 314 310 310 313 315 317 317 315 318 321 318 310 304 301 298 292 283 284 292 310 316 318 330 320 316 324 346 343 324 348 45 40 45 65 74 73 72 72 67 60 56 53 49 53 70 86 81 68 70 82 88 67 56 73 133 171 160 155 177 193 180 153 139 120 88 64 50 36 28 17